| time (UTC) | temp C | wind direction | speed KPH | gust KPH | rain 1hr cm | rain 24hr cm | rain mn cm | humidity % | barometer mb |
| 20260502162002 | 13 | 71 | 0.0 | 1.6 | 0.00 | 0.00 | 0.00 | 37 | 1014.7 |
| 20260502161002 | 13 | 33 | 0.0 | 0.0 | 0.00 | 0.00 | 0.00 | 38 | 1014.2 |
| 20260502152023 | 11 | 76 | 0.0 | 0.0 | 0.00 | 0.00 | 0.00 | 46 | 1014.8 |
| 20260502151002 | 11 | 82 | 0.0 | 1.6 | 0.00 | 0.00 | 0.00 | 42 | 1014.2 |
| 20260502123024 | 1 | 254 | 0.0 | 0.0 | 0.00 | 0.00 | 0.00 | 73 | 1014.4 |
| 20260502122002 | 1 | 259 | 0.0 | 0.0 | 0.00 | 0.00 | 0.00 | 74 | 1014.4 |
| 20260502121001 | 1 | 254 | 0.0 | 0.0 | 0.00 | 0.00 | 0.00 | 75 | 1014.5 |
| 20260502115003 | 1 | 256 | 0.0 | 0.0 | 0.00 | 0.00 | 0.00 | 76 | 1014.4 |
| 20260502114002 | 1 | 256 | 0.0 | 0.0 | 0.00 | 0.00 | 0.00 | 75 | 1014.2 |
| 20260502113002 | 1 | 256 | 0.0 | 0.0 | 0.00 | 0.00 | 0.00 | 75 | 1014.2 |
| 20260502112002 | 1 | 254 | 0.0 | 0.0 | 0.00 | 0.00 | 0.00 | 75 | 1014.1 |
| 20260502111002 | 1 | 257 | 0.0 | 0.0 | 0.00 | 0.00 | 0.00 | 75 | 1014.0 |
| 20260502110001 | 1 | 256 | 0.0 | 0.0 | 0.00 | 0.00 | 0.00 | 75 | 1014.0 |
| 20260502105002 | 2 | 256 | 0.0 | 0.0 | 0.00 | 0.00 | 0.00 | 75 | 1013.7 |
| 20260502104001 | 2 | 256 | 0.0 | 0.0 | 0.00 | 0.00 | 0.00 | 74 | 1013.7 |
| 20260502103002 | 2 | 256 | 0.0 | 0.0 | 0.00 | 0.00 | 0.00 | 74 | 1013.7 |
| 20260502102001 | 2 | 256 | 0.0 | 0.0 | 0.00 | 0.00 | 0.00 | 74 | 1013.6 |
| 20260502101023 | 2 | 256 | 0.0 | 0.0 | 0.00 | 0.00 | 0.00 | 73 | 1013.9 |
| 20260502091002 | 3 | 257 | 0.0 | 0.0 | 0.00 | 0.00 | 0.00 | 70 | 1013.8 |
| 20260502071001 | 4 | 256 | 0.0 | 0.0 | 0.00 | 0.00 | 0.00 | 68 | 1013.8 |
| 20260502070002 | 4 | 257 | 0.0 | 0.0 | 0.00 | 0.00 | 0.00 | 67 | 1013.8 |
| 20260502065002 | 5 | 256 | 0.0 | 0.0 | 0.00 | 0.00 | 0.00 | 67 | 1013.7 |
| 20260502064002 | 5 | 256 | 0.0 | 0.0 | 0.00 | 0.00 | 0.00 | 66 | 1013.6 |
| 20260502063002 | 5 | 256 | 0.0 | 0.0 | 0.00 | 0.00 | 0.00 | 66 | 1013.6 |
| 20260502062002 | 5 | 257 | 0.0 | 0.0 | 0.00 | 0.00 | 0.00 | 66 | 1013.4 |
| 20260502061002 | 5 | 256 | 0.0 | 0.0 | 0.00 | 0.00 | 0.00 | 65 | 1012.9 |
| 20260502060002 | 5 | 256 | 0.0 | 0.0 | 0.00 | 0.00 | 0.00 | 65 | 1012.9 |
| 20260502055024 | 5 | 257 | 0.0 | 0.0 | 0.00 | 0.00 | 0.00 | 65 | 1013.0 |
| 20260502054002 | 5 | 256 | 0.0 | 0.0 | 0.00 | 0.00 | 0.00 | 64 | 1012.9 |
| 20260502053023 | 6 | 256 | 0.0 | 0.0 | 0.00 | 0.00 | 0.00 | 63 | 1012.9 |
| 20260502052001 | 6 | 256 | 0.0 | 0.0 | 0.00 | 0.00 | 0.00 | 62 | 1012.4 |
| 20260502051003 | 6 | 256 | 0.0 | 0.0 | 0.00 | 0.00 | 0.00 | 61 | 1013.0 |
| 20260502050002 | 6 | 256 | 0.0 | 0.0 | 0.00 | 0.00 | 0.00 | 61 | 1013.0 |
| 20260502045001 | 7 | 257 | 0.0 | 0.0 | 0.00 | 0.00 | 0.00 | 60 | 1013.0 |
| 20260502044023 | 7 | 257 | 0.0 | 0.0 | 0.00 | 0.00 | 0.00 | 60 | 1012.6 |
| 20260502043002 | 7 | 256 | 0.0 | 0.0 | 0.00 | 0.00 | 0.00 | 59 | 1012.6 |
| 20260502042002 | 8 | 257 | 0.0 | 0.0 | 0.00 | 0.00 | 0.00 | 57 | 1012.6 |
| 20260502041002 | 8 | 256 | 0.0 | 0.0 | 0.00 | 0.00 | 0.00 | 55 | 1013.1 |
| 20260502040003 | 8 | 256 | 0.0 | 0.0 | 0.00 | 0.00 | 0.00 | 53 | 1013.1 |
| 20260502035003 | 9 | 256 | 0.0 | 0.0 | 0.00 | 0.00 | 0.00 | 52 | 1012.6 |
| 20260502034002 | 10 | 256 | 0.0 | 0.0 | 0.00 | 0.00 | 0.00 | 48 | 1012.2 |
| 20260502033002 | 10 | 257 | 0.0 | 0.0 | 0.00 | 0.00 | 0.00 | 46 | 1012.2 |
| 20260502032002 | 10 | 257 | 0.0 | 0.0 | 0.00 | 0.00 | 0.00 | 45 | 1011.7 |
| 20260502031003 | 10 | 257 | 0.0 | 0.0 | 0.00 | 0.00 | 0.00 | 44 | 1012.2 |
| 20260502030003 | 11 | 256 | 0.0 | 0.0 | 0.00 | 0.00 | 0.00 | 43 | 1012.2 |
| 20260502025022 | 11 | 257 | 0.0 | 0.0 | 0.00 | 0.00 | 0.00 | 42 | 1011.6 |
| 20260502024023 | 12 | 253 | 0.0 | 0.0 | 0.00 | 0.00 | 0.00 | 40 | 1011.3 |
| 20260502023003 | 12 | 252 | 0.0 | 0.0 | 0.00 | 0.00 | 0.00 | 41 | 1011.3 |
| 20260502022002 | 13 | 259 | 0.0 | 0.0 | 0.00 | 0.00 | 0.00 | 40 | 1010.8 |
| 20260502021024 | 14 | 261 | 0.0 | 0.0 | 0.00 | 0.00 | 0.00 | 39 | 1011.0 |
| 20260502020002 | 15 | 252 | 0.0 | 0.0 | 0.00 | 0.00 | 0.00 | 38 | 1011.0 |
| 20260502015003 | 16 | 253 | 0.0 | 0.0 | 0.00 | 0.00 | 0.00 | 36 | 1010.7 |
| 20260502014002 | 17 | 253 | 0.0 | 0.0 | 0.00 | 0.00 | 0.00 | 32 | 1010.5 |
| 20260502013002 | 18 | 256 | 0.0 | 0.0 | 0.00 | 0.00 | 0.00 | 29 | 1010.5 |
| 20260502012002 | 18 | 259 | 0.0 | 3.2 | 0.00 | 0.00 | 0.00 | 27 | 1010.1 |
| 20260502011003 | 18 | 300 | 0.0 | 1.6 | 0.00 | 0.00 | 0.00 | 25 | 1011.8 |
| 20260502010002 | 19 | 302 | 0.0 | 0.0 | 0.00 | 0.00 | 0.00 | 20 | 1011.8 |
| 20260502005023 | 20 | 298 | 0.0 | 1.6 | 0.00 | 0.00 | 0.00 | 19 | 1011.5 |
| 20260502004003 | 20 | 295 | 0.0 | 1.6 | 0.00 | 0.00 | 0.00 | 22 | 1011.5 |
| 20260502003002 | 20 | 316 | 0.0 | 0.0 | 0.00 | 0.00 | 0.00 | 21 | 1011.5 |
| 20260502002002 | 20 | 318 | 0.0 | 4.8 | 0.00 | 0.00 | 0.00 | 20 | 1011.9 |
| 20260502001023 | 19 | 358 | 0.0 | 3.2 | 0.00 | 0.00 | 0.00 | 21 | 1011.6 |
| 20260502000002 | 19 | 30 | 0.0 | 8.0 | 0.00 | 0.00 | 0.00 | 22 | 1011.6 |
| 20260501235023 | 19 | 330 | 0.0 | 3.2 | 0.00 | 0.00 | 0.00 | 20 | 1011.8 |
| 20260501234002 | 19 | 356 | 1.6 | 8.0 | 0.00 | 0.00 | 0.00 | 22 | 1012.0 |
| 20260501233002 | 19 | 353 | 1.6 | 8.0 | 0.00 | 0.00 | 0.00 | 22 | 1012.0 |
| 20260501232002 | 19 | 340 | 0.0 | 0.0 | 0.00 | 0.00 | 0.00 | 22 | 1011.9 |
| 20260501231003 | 19 | 355 | 1.6 | 9.7 | 0.00 | 0.00 | 0.00 | 21 | 1011.7 |
| 20260501230003 | 20 | 263 | 0.0 | 3.2 | 0.00 | 0.00 | 0.00 | 22 | 1011.7 |
| 20260501225003 | 20 | 276 | 0.0 | 8.0 | 0.00 | 0.00 | 0.00 | 20 | 1011.7 |
| 20260501224002 | 19 | 284 | 0.0 | 3.2 | 0.00 | 0.00 | 0.00 | 25 | 1012.3 |
| 20260501223002 | 19 | 287 | 0.0 | 3.2 | 0.00 | 0.00 | 0.00 | 26 | 1012.3 |
| 20260501222002 | 19 | 313 | 0.0 | 8.0 | 0.00 | 0.00 | 0.00 | 22 | 1012.6 |
| 20260501221002 | 18 | 275 | 0.0 | 9.7 | 0.00 | 0.00 | 0.00 | 23 | 1012.7 |
| 20260501220002 | 18 | 346 | 0.0 | 9.7 | 0.00 | 0.00 | 0.00 | 22 | 1012.7 |
| 20260501215023 | 18 | 23 | 4.8 | 9.7 | 0.00 | 0.00 | 0.00 | 24 | 1012.9 |
| 20260501214023 | 18 | 347 | 0.0 | 12.9 | 0.00 | 0.00 | 0.00 | 26 | 1013.1 |
| 20260501213002 | 18 | 56 | 1.6 | 11.3 | 0.00 | 0.00 | 0.00 | 24 | 1013.1 |
| 20260501212023 | 18 | 351 | 3.2 | 11.3 | 0.00 | 0.00 | 0.00 | 27 | 1013.2 |
| 20260501211024 | 18 | 7 | 3.2 | 9.7 | 0.00 | 0.00 | 0.00 | 24 | 1013.6 |
| 20260501210002 | 17 | 41 | 1.6 | 11.3 | 0.00 | 0.00 | 0.00 | 24 | 1013.6 |
| 20260501205024 | 17 | 357 | 6.4 | 16.1 | 0.00 | 0.00 | 0.00 | 26 | 1013.6 |
| 20260501204002 | 17 | 4 | 1.6 | 11.3 | 0.00 | 0.00 | 0.00 | 25 | 1013.6 |
| 20260501203002 | 17 | 4 | 3.2 | 12.9 | 0.00 | 0.00 | 0.00 | 27 | 1013.6 |
| 20260501202002 | 17 | 61 | 4.8 | 16.1 | 0.00 | 0.00 | 0.00 | 24 | 1013.6 |
| 20260501201023 | 17 | 311 | 0.0 | 11.3 | 0.00 | 0.00 | 0.00 | 23 | 1013.8 |
| 20260501200002 | 17 | 47 | 4.8 | 12.9 | 0.00 | 0.00 | 0.00 | 23 | 1013.8 |
| 20260501195002 | 17 | 50 | 1.6 | 9.7 | 0.00 | 0.00 | 0.00 | 26 | 1013.7 |
| 20260501194002 | 17 | 268 | 1.6 | 8.0 | 0.00 | 0.00 | 0.00 | 26 | 1013.7 |
| 20260501193002 | 17 | 24 | 0.0 | 0.0 | 0.00 | 0.00 | 0.00 | 26 | 1013.7 |
| 20260501192002 | 17 | 356 | 0.0 | 0.0 | 0.00 | 0.00 | 0.00 | 28 | 1014.2 |
| 20260501191003 | 17 | 302 | 0.0 | 9.7 | 0.00 | 0.00 | 0.00 | 27 | 1013.9 |
| 20260501190002 | 16 | 276 | 1.6 | 11.3 | 0.00 | 0.00 | 0.00 | 27 | 1013.9 |
| 20260501185002 | 16 | 328 | 0.0 | 4.8 | 0.00 | 0.00 | 0.00 | 32 | 1014.0 |
| 20260501184002 | 16 | 295 | 0.0 | 0.0 | 0.00 | 0.00 | 0.00 | 26 | 1014.4 |
| 20260501183001 | 16 | 291 | 0.0 | 11.3 | 0.00 | 0.00 | 0.00 | 26 | 1014.4 |
| 20260501182002 | 16 | 247 | 1.6 | 11.3 | 0.00 | 0.00 | 0.00 | 24 | 1014.5 |
| 20260501181002 | 16 | 124 | 1.6 | 8.0 | 0.00 | 0.00 | 0.00 | 27 | 1014.3 |
| 20260501180004 | 16 | 198 | 0.0 | 8.0 | 0.00 | 0.00 | 0.00 | 23 | 1014.3 |
| 20260501175002 | 16 | 106 | 0.0 | 0.0 | 0.00 | 0.00 | 0.00 | 27 | 1014.5 |
| 20260501174002 | 15 | 48 | 1.6 | 8.0 | 0.00 | 0.00 | 0.00 | 25 | 1014.6 |
| 20260501173003 | 15 | 27 | 0.0 | 0.0 | 0.00 | 0.00 | 0.00 | 26 | 1014.6 |
| 20260501172002 | 15 | 216 | 0.0 | 1.6 | 0.00 | 0.00 | 0.00 | 26 | 1014.9 |
| 20260501171002 | 15 | 127 | 0.0 | 4.8 | 0.00 | 0.00 | 0.00 | 26 | 1015.0 |
| 20260501170003 | 14 | 51 | 0.0 | 1.6 | 0.00 | 0.00 | 0.00 | 29 | 1015.0 |
| 20260501165003 | 13 | 119 | 0.0 | 0.0 | 0.00 | 0.00 | 0.00 | 27 | 1015.1 |
| 20260501164002 | 13 | 75 | 0.0 | 1.6 | 0.00 | 0.00 | 0.00 | 30 | 1015.0 |
| 20260501163003 | 13 | 44 | 0.0 | 0.0 | 0.00 | 0.00 | 0.00 | 37 | 1015.0 |